Home   Weather   Dindigul   Past weeks

Flag for India Past Weather in Dindigul, Tamil Nadu, India — Yesterday and Last 2 Weeks

Now
90 °F

Passing clouds.


Feels Like: 96 °F
Forecast: 76 / 93 °F
Wind: 6 mph from South

Location: Tiruchchirapalli

Current Time: Sep 26, 2016 at 9:10:58 PM

Latest Report: Sep 26, 2016 at 8:30 PM


Visibility: 4 mi

Pressure: 29.74 "Hg

Humidity: 55%

Dew Point: 72 °F

Location of DindigulLocation

Past Weather in Dindigul — Graph

°F

Dindigul Temperature Yesterday

Maximum temperature yesterday: 99 °F (at 2:30 PM)
Minimum temperature yesterday: 81 °F (at 4:30 AM)
Average temperature yesterday: 89 °F

High & Low Weather Summary for the Past Weeks

 TemperatureHumidityPressure
High102 °F (Sep 16, 2:00 PM)84% (Sep 12, 11:30 PM)29.83 "Hg (Sep 12, 11:30 PM)
Low79 °F (Sep 12, 5:30 AM)31% (Sep 16, 2:00 PM)29.53 "Hg (Sep 18, 9:30 AM)
Average88 °F55%29.71 "Hg
* Reported Sep 11 7:30 PM — Sep 26 7:30 PM, Dindigul, Weather by CustomWeather, © 2016

Note: Actual official high and low records may vary slightly from our data, if they occured in-between our weather recording intervals... More about our weather records

Advertising

Dindigul Weather History for the Previous 24 Hours

Scroll right to see more
 ConditionsComfort  
Time TempWeatherWind HumidityBarometerVisibility
7:30 PM
Mon, Sep 26
91 °FPartly cloudy.5 mph49%29.71 "Hg4 mi
7:00 PM93 °FPartly cloudy.3 mph47%29.68 "Hg4 mi
6:30 PM93 °FBroken clouds.7 mph47%29.65 "Hg4 mi
6:00 PM93 °FBroken clouds.9 mph44%29.65 "Hg4 mi
5:30 PM95 °FBroken clouds.10 mph41%29.62 "Hg4 mi
5:00 PM95 °FBroken clouds.10 mph44%29.62 "Hg4 mi
4:30 PM97 °FBroken clouds.12 mph42%29.62 "Hg5 mi
4:00 PM97 °FBroken clouds.9 mph39%29.62 "Hg5 mi
3:30 PM97 °FBroken clouds.9 mph39%29.62 "Hg5 mi
3:00 PM99 °FBroken clouds.10 mph37%29.62 "Hg5 mi
2:30 PM99 °FBroken clouds.12 mph37%29.62 "Hg5 mi
2:00 PM97 °FScattered clouds.9 mph39%29.65 "Hg5 mi
1:30 PM97 °FScattered clouds.12 mph39%29.65 "Hg5 mi
1:00 PM97 °FScattered clouds.12 mph39%29.68 "Hg5 mi
12:30 PM95 °FScattered clouds.12 mph41%29.71 "Hg5 mi
12:00 PM95 °FScattered clouds.12 mph44%29.71 "Hg5 mi
11:30 AM93 °FScattered clouds.14 mph47%29.74 "Hg5 mi
11:00 AM93 °FScattered clouds.12 mph47%29.74 "Hg4 mi
10:30 AM91 °FScattered clouds.13 mph49%29.77 "Hg4 mi
10:00 AM90 °FScattered clouds.14 mph52%29.77 "Hg4 mi
9:30 AM88 °FScattered clouds.13 mph55%29.77 "Hg4 mi
9:00 AM86 °FPartly sunny.13 mph59%29.77 "Hg4 mi
8:30 AM86 °FBroken clouds.12 mph59%29.77 "Hg4 mi
8:00 AM84 °FBroken clouds.10 mph62%29.74 "Hg4 mi
7:30 AM82 °FScattered clouds.12 mph66%29.74 "Hg4 mi
7:00 AM82 °FScattered clouds.14 mph66%29.74 "Hg4 mi
6:30 AM82 °FPassing clouds.9 mph66%29.71 "Hg4 mi
6:00 AM82 °FPassing clouds.9 mph66%29.71 "Hg4 mi
5:30 AM82 °FPassing clouds.9 mph66%29.68 "Hg4 mi
5:00 AM82 °FPassing clouds.12 mph62%29.68 "Hg4 mi
4:30 AM82 °FPassing clouds.12 mph62%29.68 "Hg4 mi
3:30 AM84 °FPassing clouds.12 mph58%29.68 "Hg4 mi
3:00 AM84 °FPassing clouds.12 mph58%29.68 "Hg4 mi
2:30 AM84 °FPassing clouds.12 mph58%29.68 "Hg4 mi
2:00 AM84 °FPassing clouds.12 mph58%29.68 "Hg4 mi
1:30 AM84 °FPassing clouds.12 mph58%29.68 "Hg4 mi
1:00 AM84 °FPassing clouds.12 mph58%29.68 "Hg4 mi
12:30 AM84 °FPassing clouds.12 mph58%29.68 "Hg4 mi
12:00 AM84 °FPassing clouds.9 mph58%29.71 "Hg4 mi
11:30 PM
Sun, Sep 25
86 °FPassing clouds.12 mph55%29.74 "Hg4 mi
11:00 PM86 °FPassing clouds.14 mph62%29.71 "Hg4 mi
10:30 PM86 °FPassing clouds.14 mph62%29.71 "Hg4 mi
10:00 PM86 °FPassing clouds.9 mph62%29.71 "Hg4 mi
9:30 PM86 °FPassing clouds.9 mph62%29.71 "Hg4 mi
9:00 PM88 °FPassing clouds.5 mph59%29.71 "Hg4 mi
Weather by CustomWeather, © 2016

See weather overviewHow to use our weather pages